[[{"header":{"parameterUnit":"m.s-1","parameterCategory":2,"la1":30.2991,"la2":30.254,"lo1":-89.0895,"lo2":-89.0444,"dy":0.0017,"dx":0.0017,"nx":28,"ny":28,"refTime":"2025-12-14T09:00:00:Z","depth":"0","parameterNumber":2,"parameterNumberName":"U-component_of_CURRENTS"},"data":[0,0,0,0,0,0,0,0,0,0,0,0,0,0,0,0,0,0,0,0,0,0,0,0,0,0,0,0,0,0,0,0,0,0,0,0,0,0,0,0,0,0,0,0,0,0,0,0,0,0,0,0,0,0,0,0,0,0,0.3478,0.3479,0,0.3532,0.3532,0.3533,0.3539,0.3539,0.3538,0.3538,0.3497,0.3496,0.3495,0,0,0,0,0,0,0,0,0,0,0,0,0,0.3405,0.3406,0.3478,0.3479,0.348,0.3532,0.3532,0.3533,0.3539,0.3539,0.3538,0.3538,0.3497,0.3496,0.3495,0,0,0,0,0,0,0,0,0,0,0,0,0,0.3442,0.3406,0.3478,0.3492,0.3494,0.3532,0.3532,0.3533,0.3539,0.3539,0.3538,0.3538,0.3497,0.3496,0.3495,0.3492,0,0,0.349,0.349,0,0,0,0,0,0,0,0,0.344,0.3444,0.3489,0.3491,0.3493,0.3532,0.3492,0.3516,0.3539,0.3518,0.3538,0.3538,0.3502,0.35,0.3507,0.349,0.3488,0.349,0.3489,0.3489,0.3488,0,0,0,0,0,0,0,0.3437,0.3442,0.3495,0.349,0.3493,0.3505,0.3509,0.3497,0.3506,0.352,0.3521,0.3533,0.3502,0.3509,0.3506,0.3488,0.349,0.3489,0.3488,0.3488,0.3498,0.3499,0,0,0,0,0,0,0.3437,0.344,0.3494,0.3497,0.347,0.3506,0.3511,0.3517,0.3509,0.3509,0.3533,0.3533,0.3511,0.3508,0.3505,0.3523,0.3489,0.3488,0.3487,0.3497,0.3498,0.3499,0,0,0,0,0,0,0.3435,0.3441,0.3492,0.3473,0.3481,0.3508,0.3514,0.3518,0.3528,0.3521,0.3518,0.354,0.3511,0.3506,0.3508,0.352,0.3487,0.3486,0.3495,0.3497,0.3499,0.3545,0,0,0,0,0,0,0.3433,0.344,0.3442,0.3473,0.3482,0.3519,0.3515,0.3519,0.3537,0.3537,0.3526,0.3522,0.351,0.3511,0.3507,0.3518,0.3485,0.3494,0.3496,0.3498,0.3542,0.3548,0.3553,0,0,0,0,0,0.343,0.3431,0.3442,0.3449,0.3485,0.352,0.3526,0.3542,0.3538,0.3547,0.3545,0.3522,0.3521,0.351,0.3506,0.3516,0.3493,0.3496,0.3498,0.354,0.3547,0.3553,0,0,0,0,0,0,0.3393,0.3433,0.3446,0.3457,0.3491,0.3523,0.3534,0.3544,0.3551,0.3549,0.3534,0.353,0.3537,0.3523,0.3512,0.3528,0.3504,0.3506,0.3537,0.3544,0.3549,0.3561,0.3483,0,0,0,0,0,0.339,0.3403,0.3447,0.3456,0.3475,0.3505,0.3521,0.3536,0.355,0.3553,0.3546,0.3541,0.3544,0.3541,0.3537,0.3542,0.3546,0.3548,0.3553,0.3558,0.3566,0.3586,0.3594,0.3507,0.3507,0.3507,0,0,0.338,0.3402,0.3411,0.345,0.3476,0.3509,0.3513,0.3542,0.3564,0.3546,0.3559,0.3557,0.355,0.3563,0.3564,0.3551,0.3588,0.3561,0.3565,0.357,0.3589,0.3598,0.3605,0.3509,0.3509,0.3508,0,0,0.3368,0.3388,0.3401,0.3436,0.3483,0.3508,0.3519,0.3556,0.3567,0.3588,0.3583,0.3597,0.3589,0.3599,0.36,0.3633,0.3616,0.3625,0.366,0.3679,0.3687,0.3693,0.3721,0.373,0.3627,0.3628,0.3628,0,0.335,0.3375,0.3411,0.344,0.3467,0.3509,0.3535,0.3562,0.3591,0.3605,0.3596,0.3619,0.3611,0.3639,0.3656,0.3646,0.3654,0.3633,0.3687,0.3693,0.3699,0.3726,0.3735,0.363,0.363,0.363,0.3629,0,0.3361,0.3383,0.3396,0.3447,0.3483,0.3512,0.3565,0.359,0.3607,0.3634,0.3664,0.3669,0.3684,0.3686,0.3681,0.372,0.3713,0.3691,0.3669,0.371,0.3736,0.3745,0.3634,0.3633,0.3632,0.3631,0,0,0.3299,0.3384,0.3385,0.341,0.3488,0.3511,0.3564,0.3617,0.3653,0.3679,0.3719,0.3736,0.3746,0.375,0.3748,0.3769,0.3823,0.3751,0.375,0.3778,0.3875,0.387,0.3878,0.3806,0.3807,0.3808,0.3881,0,0.3289,0.3332,0.3384,0.3424,0.3455,0.352,0.3566,0.3623,0.3675,0.3727,0.3752,0.379,0.3769,0.3786,0.3804,0.3829,0.3845,0.3806,0.3832,0.3833,0.3822,0.3887,0.379,0.3846,0.3889,0.3891,0.3892,0,0.3275,0.3307,0.3347,0.3416,0.3435,0.3469,0.3553,0.3604,0.3704,0.3749,0.3805,0.3833,0.389,0.3855,0.3913,0.3889,0.3884,0.3891,0.3894,0.3878,0.3843,0.381,0.3859,0.375,0.3904,0.3903,0.3902,0,0.3208,0.3271,0.3294,0.3322,0.3418,0.3442,0.3494,0.3602,0.3665,0.3776,0.3835,0.3897,0.3943,0.3954,0.3987,0.3951,0.4049,0.3995,0.3981,0.3981,0.3898,0.3888,0.3843,0.4014,0.4014,0.4013,0.4013,0,0.3176,0.319,0.326,0.3279,0.3314,0.3395,0.3462,0.3539,0.3665,0.3751,0.3835,0.3916,0.3969,0.4033,0.4026,0.4059,0.408,0.401,0.4006,0.3913,0.3904,0.3805,0.3768,0.4016,0.4016,0.4015,0.4015,0,0.3117,0.316,0.3193,0.3269,0.3291,0.3321,0.3447,0.3512,0.3632,0.3752,0.3793,0.3954,0.4051,0.4099,0.4153,0.4119,0.4036,0.413,0.4033,0.4015,0.3875,0.3845,0.3683,0.3566,0.4122,0.4123,0.4123,0,0.3104,0.3111,0.3174,0.3208,0.3245,0.3305,0.3365,0.3487,0.3571,0.3772,0.3827,0.3976,0.4099,0.4212,0.4189,0.4204,0.4046,0.4087,0.3989,0.3878,0.3842,0.3673,0.3572,0.3902,0.3901,0.3899,0.3898,0,0.3097,0.3109,0.3155,0.3208,0.3256,0.3294,0.3381,0.3436,0.3589,0.3695,0.3863,0.3987,0.413,0.414,0.4174,0.4157,0.391,0.4061,0.3961,0.3692,0.3489,0.337,0.3854,0.3887,0.3889,0.3889,0.389,0.389,0.3116,0.3141,0.3204,0.3242,0.3275,0.329,0.3299,0.3401,0.3504,0.3631,0.3799,0.3908,0.4018,0.4079,0.4039,0.3886,0.3833,0.3753,0.3738,0.3585,0.3425,0.3902,0.3919,0.392,0.3921,0.3922,0.3923,0,0.3174,0.3206,0.3246,0.3275,0.3261,0.3278,0.3319,0.3308,0.3374,0.3518,0.364,0.3704,0.3762,0.3783,0.3721,0.3578,0.3388,0.3473,0.3202,0.3125,0.3574,0.3518,0.3431,0.3431,0.3431,0.3431,0.3431,0.3432,0.3227,0.3282,0.3281,0.3262,0.3247,0.3172,0.316,0.3154,0.3208,0.3234,0.3241,0.3311,0.3476,0.3567,0.3435,0.3346,0.3044,0.2946,0.2885,0.3218,0.3241,0.3262,0.3198,0.3045,0.3045,0.2295,0.229,0.2286]},{"header":{"parameterUnit":"m.s-1","parameterCategory":2,"la1":30.2991,"la2":30.254,"lo1":-89.0895,"lo2":-89.0444,"dy":0.0017,"dx":0.0017,"nx":28,"ny":28,"refTime":"2025-12-14T09:00:00:Z","depth":"0","parameterNumber":3,"parameterNumberName":"V-component_of_CURRENTS"},"data":[0,0,0,0,0,0,0,0,0,0,0,0,0,0,0,0,0,0,0,0,0,0,0,0,0,0,0,0,0,0,0,0,0,0,0,0,0,0,0,0,0,0,0,0,0,0,0,0,0,0,0,0,0,0,0,0,0,0,-0.022,-0.0221,0,-0.0286,-0.0287,-0.0288,-0.0347,-0.0348,-0.0348,-0.0349,-0.0427,-0.0428,-0.043,0,0,0,0,0,0,0,0,0,0,0,0,0,-0.0185,-0.0185,-0.022,-0.0221,-0.0221,-0.0286,-0.0287,-0.0288,-0.0347,-0.0348,-0.0348,-0.0349,-0.0426,-0.0428,-0.043,0,0,0,0,0,0,0,0,0,0,0,0,0,-0.0223,-0.0185,-0.022,-0.0257,-0.026,-0.0286,-0.0287,-0.0289,-0.0347,-0.0348,-0.0348,-0.0349,-0.0426,-0.0428,-0.0431,-0.0432,0,0,-0.0438,-0.0439,0,0,0,0,0,0,0,0,-0.0221,-0.0224,-0.0251,-0.0254,-0.0258,-0.0307,-0.0304,-0.0336,-0.0347,-0.0317,-0.0349,-0.0349,-0.0386,-0.0392,-0.0406,-0.0435,-0.0439,-0.0438,-0.044,-0.0441,-0.0442,0,0,0,0,0,0,0,-0.0218,-0.0222,-0.0249,-0.0251,-0.0256,-0.0284,-0.029,-0.031,-0.0348,-0.0319,-0.0323,-0.0326,-0.0389,-0.0403,-0.0408,-0.044,-0.0438,-0.044,-0.0442,-0.0443,-0.0486,-0.0486,0,0,0,0,0,0,-0.0202,-0.0219,-0.0247,-0.025,-0.0238,-0.0283,-0.029,-0.0293,-0.0348,-0.0357,-0.0326,-0.0329,-0.0399,-0.0405,-0.0411,-0.0398,-0.0441,-0.0443,-0.0445,-0.0486,-0.0486,-0.0486,0,0,0,0,0,0,-0.0201,-0.0204,-0.0244,-0.0235,-0.0241,-0.0282,-0.0285,-0.0294,-0.0305,-0.0352,-0.0362,-0.0328,-0.0399,-0.0407,-0.0425,-0.0402,-0.0444,-0.0446,-0.0487,-0.0486,-0.0486,-0.0384,0,0,0,0,0,0,-0.02,-0.0203,-0.0196,-0.0233,-0.0241,-0.0247,-0.0285,-0.0294,-0.0305,-0.031,-0.0357,-0.0366,-0.0401,-0.0421,-0.0428,-0.0407,-0.0448,-0.0487,-0.0487,-0.0486,-0.0388,-0.038,-0.0373,0,0,0,0,0,-0.0198,-0.0179,-0.0195,-0.0198,-0.0231,-0.0245,-0.0252,-0.0286,-0.0304,-0.0301,-0.0337,-0.0364,-0.0422,-0.0423,-0.043,-0.0409,-0.0488,-0.0487,-0.0486,-0.0391,-0.0381,-0.0374,0,0,0,0,0,0,-0.0156,-0.0184,-0.0203,-0.0193,-0.0213,-0.0254,-0.0252,-0.0276,-0.0302,-0.0308,-0.0357,-0.0367,-0.0376,-0.0409,-0.0408,-0.0423,-0.046,-0.0461,-0.0385,-0.0377,-0.037,-0.0342,-0.045,0,0,0,0,0,-0.0144,-0.0141,-0.0173,-0.0165,-0.0171,-0.021,-0.0219,-0.0243,-0.0272,-0.0285,-0.0318,-0.0355,-0.0379,-0.039,-0.0421,-0.0422,-0.0446,-0.0417,-0.041,-0.0404,-0.0388,-0.0403,-0.0395,-0.0483,-0.0483,-0.0483,0,0,-0.0127,-0.014,-0.014,-0.0156,-0.0177,-0.017,-0.0218,-0.0225,-0.0218,-0.0288,-0.0288,-0.033,-0.0376,-0.0382,-0.0389,-0.0405,-0.0393,-0.0403,-0.0396,-0.0384,-0.0402,-0.0393,-0.0385,-0.0483,-0.0483,-0.0483,0,0,-0.0084,-0.0102,-0.0084,-0.0094,-0.0114,-0.0136,-0.0132,-0.0167,-0.0182,-0.0194,-0.0239,-0.0266,-0.0306,-0.033,-0.0349,-0.032,-0.0356,-0.0332,-0.0266,-0.0281,-0.0274,-0.0267,-0.0285,-0.0281,-0.0325,-0.0325,-0.0325,0,-0.006,-0.0042,-0.0079,-0.0061,-0.0058,-0.0112,-0.0087,-0.0107,-0.0143,-0.0141,-0.0182,-0.0234,-0.028,-0.0273,-0.0271,-0.0301,-0.0315,-0.0291,-0.0269,-0.0263,-0.0258,-0.0279,-0.0275,-0.032,-0.032,-0.0321,-0.0321,0,-0.0005,0.0011,0.0024,0.0028,0.0025,0.0038,0.0008,0.0004,-0.0028,-0.0049,-0.006,-0.013,-0.0158,-0.018,-0.022,-0.02,-0.0224,-0.0258,-0.0283,-0.0242,-0.0268,-0.0266,-0.0313,-0.0314,-0.0316,-0.0317,0,0,0.0052,0.0063,0.007,0.009,0.0075,0.0084,0.0096,0.0101,0.0131,0.0069,0.0099,0.0028,-0.0014,-0.0039,-0.0092,-0.011,-0.0102,-0.016,-0.0163,-0.0162,-0.0128,-0.0134,-0.0134,-0.0124,-0.0123,-0.0123,-0.0158,0,0.0111,0.0171,0.0156,0.0213,0.024,0.0205,0.0225,0.0218,0.0205,0.022,0.0144,0.0138,0.0043,0.0032,-0.0001,-0.0066,-0.0092,-0.0089,-0.018,-0.0183,-0.018,-0.013,-0.0102,-0.0129,-0.0157,-0.0157,-0.0157,0,0.0173,0.0208,0.0273,0.0312,0.0321,0.0342,0.0381,0.0398,0.0396,0.0384,0.0358,0.0297,0.0258,0.0164,0.007,0.0082,-0.0015,-0.008,-0.0084,-0.0121,-0.0185,-0.0177,-0.0126,-0.031,-0.0155,-0.0155,-0.0155,0,0.0237,0.0293,0.0352,0.0364,0.0392,0.0417,0.0436,0.0449,0.05,0.0497,0.0524,0.045,0.043,0.0305,0.0149,0.0115,0.0052,-0.0019,-0.012,-0.0122,-0.0131,-0.0135,-0.0254,-0.0091,-0.0091,-0.0091,-0.0091,0,0.0307,0.036,0.0387,0.0422,0.0502,0.0491,0.0586,0.0591,0.064,0.073,0.0617,0.0669,0.0467,0.0395,0.0222,0.0079,0.0101,-0.0088,-0.0121,-0.0096,-0.0097,-0.0287,-0.0403,-0.0093,-0.0092,-0.0092,-0.0092,0,0.0371,0.0386,0.0463,0.051,0.0533,0.0593,0.0691,0.0772,0.0785,0.0902,0.0904,0.0855,0.0768,0.056,0.038,0.0197,-0.0062,-0.0031,0.0012,-0.0015,-0.0295,-0.0406,-0.0558,-0.0638,-0.0146,-0.0146,-0.0146,0,0.0414,0.0455,0.0535,0.0596,0.0623,0.0715,0.079,0.0839,0.0946,0.1035,0.1109,0.1051,0.1073,0.08,0.0459,0.0171,-0.0035,-0.0026,-0.0101,-0.0285,-0.0434,-0.0519,-0.0581,-0.008,-0.008,-0.0079,-0.0079,0,0.0504,0.0522,0.0589,0.07,0.0788,0.0907,0.1023,0.1124,0.1209,0.1324,0.147,0.15,0.1234,0.0977,0.0546,0.0323,-0.0147,-0.003,-0.0227,-0.0387,-0.0479,-0.0578,-0.0095,-0.0076,-0.0077,-0.0077,-0.0077,-0.0077,0.0577,0.0634,0.0711,0.0813,0.0931,0.1077,0.1186,0.1348,0.1538,0.1732,0.1752,0.1854,0.1416,0.0855,0.0526,-0.0105,-0.0135,-0.0304,-0.0421,-0.0488,-0.057,-0.0076,-0.0094,-0.0094,-0.0094,-0.0095,-0.0095,0,0.0658,0.0713,0.0822,0.0949,0.1085,0.1124,0.133,0.1463,0.1706,0.1939,0.2099,0.1958,0.1443,0.0858,0.0002,-0.0422,-0.0587,-0.0661,-0.0787,-0.0832,-0.0391,-0.0393,-0.0465,-0.0465,-0.0465,-0.0465,-0.0464,-0.0464,0.0708,0.0802,0.0835,0.1039,0.1143,0.1322,0.1435,0.1662,0.1865,0.2162,0.2264,0.2297,0.1819,0.0382,-0.0577,-0.0792,-0.1113,-0.1182,-0.1343,-0.1065,-0.1041,-0.1018,-0.1047,-0.1255,-0.1256,-0.1714,-0.1719,-0.1723]}],[{"header":{"parameterUnit":"m.s-1","parameterCategory":2,"la1":30.2991,"la2":30.254,"lo1":-89.0895,"lo2":-89.0444,"dy":0.0017,"dx":0.0017,"nx":28,"ny":28,"refTime":"2025-12-14T09:00:00:Z","depth":"2","parameterNumber":2,"parameterNumberName":"U-component_of_CURRENTS"},"data":[0,0,0,0,0,0,0,0,0,0,0,0,0,0,0,0,0,0,0,0,0,0,0,0,0,0,0,0,0,0,0,0,0,0,0,0,0,0,0,0,0,0,0,0,0,0,0,0,0,0,0,0,0,0,0,0,0,0,0.271,0.271,0,0.2717,0.2717,0.2716,0.2723,0.2724,0.2725,0.2726,0.2764,0.2764,0.2764,0,0,0,0,0,0,0,0,0,0,0,0,0,0.2603,0.2604,0.271,0.2711,0.2711,0.2718,0.2717,0.2716,0.2723,0.2724,0.2726,0.2727,0.2764,0.2764,0.2764,0,0,0,0,0,0,0,0,0,0,0,0,0,0.2625,0.2605,0.2709,0.2723,0.2725,0.2718,0.2717,0.2716,0.2723,0.2724,0.2726,0.2727,0.2764,0.2764,0.2764,0.2738,0,0,0.2765,0.2765,0,0,0,0,0,0,0,0,0.2624,0.2628,0.272,0.2722,0.2724,0.2729,0.2693,0.2728,0.2723,0.2714,0.2726,0.2728,0.276,0.2761,0.2746,0.2739,0.2741,0.2765,0.2765,0.2765,0.2765,0,0,0,0,0,0,0,0.2622,0.2627,0.2703,0.2721,0.2724,0.2695,0.27,0.2699,0.2722,0.2715,0.2718,0.2733,0.276,0.2745,0.2747,0.2742,0.2765,0.2765,0.2765,0.2765,0.281,0.2811,0,0,0,0,0,0,0.2644,0.2626,0.2703,0.2705,0.2687,0.2697,0.2702,0.2718,0.2722,0.2726,0.2731,0.2733,0.2744,0.2746,0.2748,0.2807,0.2765,0.2766,0.2766,0.2809,0.2811,0.2812,0,0,0,0,0,0,0.2642,0.2651,0.2703,0.2672,0.2679,0.2699,0.2717,0.2718,0.2722,0.2736,0.2739,0.2738,0.2745,0.2748,0.2775,0.2806,0.2766,0.2766,0.2808,0.281,0.2811,0.2868,0,0,0,0,0,0,0.2638,0.265,0.266,0.2674,0.2682,0.2717,0.2716,0.2718,0.2732,0.2735,0.2742,0.2746,0.2747,0.2774,0.2775,0.2805,0.2766,0.2807,0.2809,0.2811,0.2865,0.2871,0.2877,0,0,0,0,0,0.2634,0.2651,0.2661,0.267,0.2699,0.2719,0.2719,0.2731,0.2732,0.2736,0.2749,0.2746,0.2788,0.2775,0.2776,0.2807,0.2806,0.2808,0.2811,0.2862,0.287,0.2877,0,0,0,0,0,0,0.2617,0.2654,0.2665,0.2695,0.2715,0.2724,0.2728,0.2736,0.2743,0.2753,0.2754,0.2759,0.2799,0.2788,0.2774,0.2826,0.2798,0.2801,0.2837,0.2844,0.285,0.2852,0.2766,0,0,0,0,0,0.2618,0.2638,0.267,0.2695,0.2702,0.2713,0.272,0.2738,0.2753,0.2757,0.277,0.2783,0.2802,0.2813,0.2827,0.2844,0.2853,0.2866,0.2872,0.2877,0.2879,0.2923,0.2934,0.282,0.282,0.282,0,0,0.2611,0.2644,0.2649,0.2692,0.2699,0.2714,0.2718,0.2745,0.2767,0.2761,0.279,0.2808,0.2813,0.2846,0.2862,0.2845,0.2916,0.288,0.2885,0.2884,0.2927,0.2938,0.2948,0.2821,0.2821,0.2821,0,0,0.2611,0.2641,0.265,0.2673,0.2713,0.2725,0.2738,0.2764,0.2782,0.2811,0.2826,0.2862,0.2873,0.2896,0.2903,0.2945,0.2951,0.2954,0.2982,0.3026,0.3036,0.3044,0.3078,0.309,0.2952,0.2952,0.2952,0,0.2595,0.2631,0.2655,0.2678,0.27,0.2731,0.2747,0.2767,0.2807,0.2833,0.2833,0.2888,0.2896,0.2945,0.2965,0.2961,0.2984,0.2955,0.3035,0.3043,0.3051,0.3084,0.3096,0.2955,0.2955,0.2955,0.2954,0,0.2613,0.2634,0.2644,0.2682,0.2705,0.2732,0.2773,0.2809,0.2836,0.2864,0.2929,0.2947,0.2981,0.2995,0.2989,0.3058,0.3056,0.3043,0.3017,0.3067,0.3098,0.3109,0.296,0.2959,0.2958,0.2957,0,0,0.2573,0.2638,0.2638,0.2655,0.2717,0.2735,0.2787,0.2839,0.2882,0.2927,0.2982,0.3021,0.3047,0.3057,0.3073,0.3107,0.3185,0.3102,0.3103,0.3138,0.3286,0.3243,0.3251,0.3194,0.3196,0.3197,0.3288,0,0.2568,0.2609,0.265,0.2677,0.269,0.2751,0.2791,0.2853,0.291,0.2975,0.3023,0.3079,0.3066,0.3101,0.3135,0.3182,0.3216,0.3161,0.323,0.3232,0.319,0.3263,0.3009,0.3065,0.3299,0.3301,0.3302,0,0.256,0.2593,0.2622,0.2678,0.269,0.272,0.2807,0.2855,0.2959,0.3014,0.3089,0.313,0.3207,0.3181,0.3278,0.3249,0.327,0.3292,0.3296,0.3242,0.321,0.3052,0.3077,0.3321,0.3319,0.3318,0.3317,0,0.2514,0.2565,0.2591,0.2613,0.2684,0.2719,0.2766,0.2865,0.2928,0.3054,0.3116,0.3204,0.3265,0.3311,0.336,0.3332,0.346,0.3422,0.3399,0.3396,0.3184,0.3159,0.348,0.348,0.3479,0.3479,0.3479,0,0.2495,0.2507,0.2572,0.2587,0.2624,0.2689,0.2756,0.2832,0.2954,0.3029,0.313,0.3208,0.3303,0.3382,0.3401,0.3449,0.3495,0.3423,0.3425,0.3197,0.3174,0.3389,0.3377,0.3483,0.3482,0.3481,0.3481,0,0.2439,0.2482,0.2506,0.2579,0.2601,0.2631,0.2745,0.2805,0.2926,0.3035,0.3083,0.3244,0.3353,0.343,0.3527,0.3504,0.355,0.3546,0.3275,0.3244,0.3443,0.3433,0.3531,0.3531,0.353,0.353,0.3529,0,0.2416,0.2428,0.2487,0.2512,0.2547,0.2606,0.2655,0.278,0.2852,0.3042,0.3088,0.3249,0.3341,0.3484,0.3491,0.3536,0.3571,0.3305,0.3195,0.346,0.3453,0.3444,0.3435,0.2938,0.2933,0.2929,0.2925,0,0.2382,0.2407,0.2431,0.2477,0.252,0.2559,0.2637,0.2678,0.2824,0.2918,0.3048,0.3145,0.3306,0.3258,0.3336,0.3316,0.3279,0.3221,0.358,0.297,0.291,0.29,0.2909,0.2888,0.2891,0.2894,0.2896,0.2898,0.2359,0.2363,0.2408,0.2431,0.2478,0.2491,0.2483,0.2571,0.2638,0.2729,0.2898,0.2958,0.3042,0.3043,0.2973,0.292,0.3136,0.298,0.2989,0.3004,0.2925,0.2868,0.2822,0.2826,0.2828,0.2831,0.2833,0,0.232,0.2342,0.2371,0.2375,0.2373,0.2436,0.2456,0.2411,0.2419,0.2555,0.2644,0.2504,0.2518,0.2589,0.2465,0.2486,0.2419,0.2371,0.2248,0.2291,0.2327,0.2208,0.1918,0.1915,0.1911,0.1908,0,0,0.2314,0.2298,0.229,0.2252,0.2275,0.2218,0.2198,0.2149,0.2181,0.2158,0.2191,0.2417,0.2541,0.219,0.2162,0.2012,0.2121,0.1936,0.2684,0.2583,0.2614,0.2711,0.2581,0,0,0,0,0]},{"header":{"parameterUnit":"m.s-1","parameterCategory":2,"la1":30.2991,"la2":30.254,"lo1":-89.0895,"lo2":-89.0444,"dy":0.0017,"dx":0.0017,"nx":28,"ny":28,"refTime":"2025-12-14T09:00:00:Z","depth":"2","parameterNumber":3,"parameterNumberName":"V-component_of_CURRENTS"},"data":[0,0,0,0,0,0,0,0,0,0,0,0,0,0,0,0,0,0,0,0,0,0,0,0,0,0,0,0,0,0,0,0,0,0,0,0,0,0,0,0,0,0,0,0,0,0,0,0,0,0,0,0,0,0,0,0,0,0,0.019,0.019,0,0.0145,0.0144,0.0143,0.0103,0.0103,0.0102,0.0102,0.001,0.0008,0.0006,0,0,0,0,0,0,0,0,0,0,0,0,0,0.021,0.021,0.019,0.019,0.0189,0.0145,0.0144,0.0143,0.0103,0.0103,0.0102,0.0102,0.0011,0.0008,0.0006,0,0,0,0,0,0,0,0,0,0,0,0,0,0.0187,0.021,0.019,0.0164,0.0161,0.0145,0.0144,0.0143,0.0103,0.0103,0.0102,0.0101,0.0012,0.0009,0.0006,0.0001,0,0,-0.0004,-0.0005,0,0,0,0,0,0,0,0,0.0188,0.0186,0.0168,0.0166,0.0162,0.0129,0.0117,0.0093,0.0103,0.0125,0.0102,0.0101,0.0046,0.004,0.0034,-0.0004,-0.0008,-0.0004,-0.0006,-0.0007,-0.0008,0,0,0,0,0,0,0,0.019,0.0188,0.0172,0.0168,0.0164,0.0143,0.0139,0.0113,0.0089,0.0123,0.012,0.0115,0.0044,0.0037,0.0031,-0.0009,-0.0004,-0.0006,-0.0008,-0.001,-0.0069,-0.0069,0,0,0,0,0,0,0.0198,0.0189,0.0173,0.0171,0.0174,0.0143,0.0139,0.014,0.009,0.0082,0.0116,0.0114,0.0042,0.0035,0.0028,0.0018,-0.0007,-0.001,-0.0012,-0.0069,-0.0069,-0.0069,0,0,0,0,0,0,0.0199,0.0198,0.0175,0.0179,0.0174,0.0144,0.0145,0.014,0.0131,0.0085,0.0076,0.0114,0.0041,0.0032,0.0006,0.0014,-0.0011,-0.0014,-0.007,-0.0069,-0.0069,-0.0,0,0,0,0,0,0,0.02,0.0198,0.0203,0.0179,0.0174,0.0173,0.0146,0.0139,0.013,0.0126,0.008,0.0071,0.004,0.0011,0.0004,0.001,-0.0016,-0.007,-0.0069,-0.0069,-0.0003,0.0002,0.0007,0,0,0,0,0,0.0201,0.0213,0.0203,0.0201,0.0181,0.0173,0.0169,0.0144,0.013,0.0133,0.01,0.0072,0.0008,0.0009,-0.0,0.0005,-0.007,-0.007,-0.0069,-0.0005,0.0001,0.0007,0,0,0,0,0,0,0.0224,0.021,0.0198,0.0205,0.0192,0.0166,0.0167,0.015,0.0127,0.0121,0.0076,0.0066,0.0045,0.0016,0.0018,-0.0011,-0.0036,-0.0037,0.0016,0.0021,0.0026,0.0047,-0.0019,0,0,0,0,0,0.0232,0.0236,0.0218,0.0223,0.022,0.0194,0.0188,0.0172,0.0148,0.0138,0.0105,0.0069,0.0041,0.0025,-0.0006,-0.0019,-0.0051,-0.0023,-0.0018,-0.0013,-0.0003,-0.0046,-0.0044,-0.0067,-0.0067,-0.0067,0,0,0.0241,0.0234,0.0236,0.0228,0.0216,0.0224,0.0189,0.0185,0.0188,0.0131,0.0124,0.0085,0.004,0.0024,0.0012,0.0001,-0.0024,-0.0013,-0.0008,-0.0,-0.0045,-0.0043,-0.0041,-0.0067,-0.0067,-0.0067,0,0,0.0269,0.0258,0.0274,0.0271,0.0259,0.0245,0.0247,0.0225,0.0212,0.0198,0.0157,0.0127,0.0084,0.0057,0.0036,0.005,0.0002,0.0036,0.0079,0.0037,0.0039,0.004,0.0005,0.0002,0.004,0.004,0.004,0,0.0281,0.03,0.0277,0.0295,0.03,0.0261,0.0284,0.0267,0.0237,0.0231,0.0204,0.0142,0.0102,0.0084,0.0087,0.0062,0.0031,0.0063,0.0045,0.0045,0.0045,0.0008,0.0004,0.0043,0.0043,0.0043,0.0042,0,0.0324,0.0339,0.035,0.0361,0.0362,0.0374,0.0353,0.0345,0.0319,0.0298,0.027,0.0211,0.0178,0.0155,0.0124,0.0107,0.0082,0.0055,0.0034,0.0052,0.0011,0.0006,0.0048,0.0047,0.0046,0.0045,0,0,0.0352,0.0377,0.0381,0.0404,0.04,0.0409,0.0414,0.0411,0.0421,0.037,0.0373,0.031,0.0273,0.0248,0.0198,0.0159,0.0127,0.0113,0.0109,0.0085,0.0036,0.0022,0.0015,0.0093,0.0093,0.0093,0.0009,0,0.0394,0.0449,0.0445,0.0494,0.0523,0.0498,0.0509,0.0497,0.0475,0.0466,0.0394,0.0376,0.031,0.0295,0.0244,0.0161,0.0116,0.0152,0.0016,0.0012,0.0003,0.0009,0.0037,-0.0034,0.0004,0.0003,0.0002,0,0.0439,0.0473,0.0532,0.0571,0.0581,0.0598,0.0616,0.0625,0.0596,0.0579,0.054,0.0482,0.0423,0.0359,0.0225,0.025,0.0152,0.0078,0.0072,0.0034,-0.0011,-0.0048,-0.0046,-0.0007,-0.0006,-0.0006,-0.0005,0,0.048,0.0533,0.0585,0.06,0.0633,0.065,0.0664,0.0657,0.0686,0.0656,0.0665,0.0572,0.0538,0.0403,0.0248,0.0234,0.0095,0.0054,-0.0053,-0.0055,-0.007,-0.0072,-0.0047,-0.0047,-0.0046,-0.0046,-0.0046,0,0.0529,0.0571,0.0609,0.0639,0.0702,0.0705,0.0767,0.0762,0.0781,0.0825,0.0731,0.0739,0.0547,0.0441,0.0282,0.0109,0.0117,-0.004,-0.0077,-0.0045,-0.0044,-0.0052,-0.0051,-0.0049,-0.0049,-0.0048,-0.0047,0,0.0566,0.059,0.0656,0.0705,0.0725,0.0771,0.0847,0.0898,0.0897,0.0951,0.0948,0.0868,0.0734,0.0533,0.0321,0.017,-0.0006,-0.0074,-0.0019,-0.0048,-0.0139,-0.0134,-0.0202,-0.0203,-0.0204,-0.0205,-0.0206,0,0.059,0.0627,0.0706,0.0756,0.0781,0.0856,0.0915,0.0952,0.102,0.1036,0.1072,0.0962,0.0904,0.0593,0.0308,0.003,-0.0007,-0.0128,-0.0154,-0.0126,-0.0155,-0.0148,-0.0142,-0.0151,-0.0151,-0.0151,-0.0151,0,0.0637,0.066,0.0718,0.082,0.0894,0.0993,0.1081,0.1152,0.12,0.1241,0.1273,0.1226,0.0933,0.0662,0.0283,0.0099,-0.0082,-0.014,-0.0127,-0.0109,-0.0083,-0.0109,-0.0104,-0.0153,-0.0152,-0.0152,-0.0152,-0.0152,0.0669,0.0719,0.0796,0.0893,0.0987,0.1112,0.1206,0.1304,0.1412,0.1477,0.1425,0.1362,0.1043,0.0569,0.0239,-0.0101,-0.0089,-0.021,-0.0208,-0.0206,-0.0178,-0.0154,-0.0232,-0.0233,-0.0233,-0.0233,-0.0233,0,0.0718,0.0777,0.0868,0.0991,0.1102,0.1147,0.1308,0.14,0.1531,0.1578,0.1597,0.1294,0.0985,0.0624,0.0115,-0.019,-0.0209,-0.0277,-0.0239,-0.0235,-0.0232,-0.0205,-0.0267,-0.0268,-0.0269,-0.027,0,0,0.0747,0.084,0.0887,0.1064,0.1157,0.1315,0.1416,0.1543,0.1618,0.1656,0.1625,0.1547,0.1099,0.0726,0.0308,0.0017,-0.0034,-0.0032,0.0029,0.0128,0.0135,-0.0159,-0.0108,0,0,0,0,0]}],[{"header":{"parameterUnit":"m.s-1","parameterCategory":2,"la1":30.2991,"la2":30.254,"lo1":-89.0895,"lo2":-89.0444,"dy":0.0017,"dx":0.0017,"nx":28,"ny":28,"refTime":"2025-12-14T09:00:00:Z","depth":"4","parameterNumber":2,"parameterNumberName":"U-component_of_CURRENTS"},"data":[0,0,0,0,0,0,0,0,0,0,0,0,0,0,0,0,0,0,0,0,0,0,0,0,0,0,0,0,0,0,0,0,0,0,0,0,0,0,0,0,0,0,0,0,0,0,0,0,0,0,0,0,0,0,0,0,0,0,0.1569,0.157,0,0.1648,0.1649,0.165,0.1703,0.1704,0.1704,0.1705,0.1799,0.1801,0.1803,0,0,0,0,0,0,0,0,0,0,0,0,0,0.1486,0.1487,0.1569,0.157,0.1571,0.1648,0.1649,0.165,0.1703,0.1704,0.1704,0.1705,0.1799,0.1801,0.1803,0,0,0,0,0,0,0,0,0,0,0,0,0,0.1538,0.1487,0.1569,0.1608,0.1613,0.1648,0.1649,0.165,0.1703,0.1704,0.1704,0.1705,0.1798,0.1801,0.1804,0.1807,0,0,0.1813,0.1814,0,0,0,0,0,0,0,0,0.1535,0.154,0.1601,0.1606,0.1611,0.1668,0.1655,0.1704,0.1703,0.1667,0.1705,0.1706,0.1757,0.1764,0.1774,0.1812,0.1816,0.1813,0.1815,0.1817,0.1817,0,0,0,0,0,0,0,0.1531,0.1537,0.1599,0.1602,0.1608,0.163,0.1637,0.1664,0.1706,0.167,0.1674,0.1686,0.176,0.1771,0.1777,0.1817,0.1813,0.1816,0.1818,0.1819,0.1966,0.1967,0,0,0,0,0,0,0.1522,0.1534,0.1596,0.1601,0.1576,0.1631,0.1639,0.1647,0.1705,0.1715,0.1685,0.1688,0.1766,0.1773,0.1781,0.1879,0.1817,0.1819,0.1821,0.1963,0.1966,0.1968,0,0,0,0,0,0,0.152,0.1527,0.1593,0.1571,0.1581,0.1631,0.164,0.1649,0.1696,0.1717,0.1727,0.1728,0.1767,0.1776,0.1838,0.1879,0.1821,0.1824,0.1961,0.1964,0.1967,0.2017,0,0,0,0,0,0,0.1517,0.1526,0.1548,0.157,0.1582,0.1633,0.164,0.165,0.17,0.1706,0.1756,0.1764,0.1768,0.1833,0.1841,0.1882,0.1826,0.1958,0.1962,0.1966,0.2012,0.2021,0.2028,0,0,0,0,0,0.1514,0.1532,0.1548,0.1557,0.1604,0.1634,0.1643,0.168,0.1702,0.1726,0.1766,0.1764,0.1863,0.1837,0.1846,0.1889,0.1957,0.1961,0.1966,0.2009,0.2019,0.2028,0,0,0,0,0,0,0.1508,0.154,0.1558,0.1586,0.1619,0.1645,0.1678,0.1701,0.1751,0.177,0.1788,0.1798,0.1869,0.1874,0.1845,0.1944,0.1911,0.1917,0.1941,0.1951,0.1959,0.196,0.1829,0,0,0,0,0,0.1516,0.1541,0.1571,0.1599,0.1619,0.1657,0.1683,0.1707,0.1745,0.177,0.1806,0.1848,0.1888,0.1916,0.1948,0.2001,0.2009,0.2036,0.2044,0.2051,0.2059,0.2109,0.2122,0.1983,0.1983,0.1983,0,0,0.1521,0.1545,0.156,0.1601,0.1633,0.1665,0.1675,0.1723,0.1761,0.1772,0.1848,0.1881,0.191,0.197,0.2002,0.1983,0.2096,0.2056,0.2062,0.2066,0.2116,0.2129,0.2141,0.1986,0.1986,0.1985,0,0,0.1533,0.1568,0.1592,0.1621,0.1673,0.1696,0.1718,0.1767,0.1806,0.1871,0.1894,0.1952,0.2013,0.2041,0.2062,0.2135,0.2137,0.2153,0.2195,0.2244,0.2256,0.2266,0.2292,0.2304,0.2156,0.2156,0.2156,0,0.1545,0.1573,0.1605,0.1635,0.1667,0.1714,0.1748,0.179,0.1856,0.1895,0.1905,0.202,0.2044,0.2117,0.2146,0.2153,0.2176,0.2152,0.2254,0.2264,0.2274,0.2298,0.2311,0.2159,0.2159,0.2158,0.2158,0,0.1559,0.16,0.162,0.1672,0.171,0.175,0.1804,0.1861,0.1916,0.1956,0.2054,0.2095,0.2161,0.2183,0.2189,0.2277,0.2269,0.2257,0.2224,0.2291,0.2312,0.2325,0.2163,0.2162,0.2161,0.2161,0,0,0.1544,0.1616,0.1628,0.166,0.1736,0.1764,0.1841,0.1915,0.1977,0.205,0.213,0.2206,0.2241,0.2268,0.2292,0.2337,0.2422,0.2334,0.2335,0.2351,0.2528,0.2366,0.2364,0.2435,0.2437,0.2439,0.2514,0,0.1554,0.1604,0.1645,0.171,0.1742,0.1812,0.1877,0.1954,0.2031,0.212,0.2186,0.2272,0.227,0.2321,0.2367,0.2416,0.2459,0.2403,0.2469,0.2471,0.2312,0.2374,0.2448,0.2523,0.2526,0.2528,0.2529,0,0.1552,0.159,0.1647,0.1733,0.1757,0.1808,0.1925,0.1989,0.2114,0.2182,0.2276,0.2332,0.243,0.2414,0.2524,0.2494,0.252,0.2544,0.2547,0.2386,0.2332,0.2446,0.2551,0.255,0.2548,0.2547,0.2545,0,0.1509,0.1592,0.1639,0.1667,0.1769,0.1825,0.1892,0.2013,0.2085,0.2234,0.2306,0.2415,0.2492,0.2548,0.2603,0.2581,0.2707,0.2675,0.255,0.2538,0.2639,0.2627,0.2748,0.2748,0.2748,0.2748,0.2748,0,0.1485,0.1529,0.1628,0.1652,0.1725,0.1809,0.1909,0.1996,0.2133,0.2214,0.2338,0.2413,0.2536,0.2614,0.2639,0.263,0.2737,0.2566,0.2552,0.2657,0.2647,0.2647,0.2634,0.2751,0.275,0.275,0.2749,0,0.1428,0.1491,0.1551,0.1664,0.1705,0.1759,0.1906,0.1972,0.2118,0.2231,0.2286,0.2448,0.2541,0.263,0.273,0.2661,0.2678,0.2648,0.2762,0.2752,0.2466,0.2455,0.2504,0.2498,0.2494,0.2491,0.2488,0,0.1395,0.1421,0.1541,0.1578,0.1636,0.1733,0.1797,0.1951,0.2019,0.2223,0.2258,0.2415,0.25,0.2511,0.2612,0.2644,0.2617,0.2601,0.252,0.2462,0.2444,0.244,0.2435,0.2481,0.248,0.2479,0.2478,0,0.1334,0.1393,0.144,0.1516,0.1586,0.1651,0.1753,0.1791,0.1959,0.2113,0.2186,0.2245,0.2343,0.241,0.2461,0.2476,0.2595,0.2556,0.2564,0.2488,0.2436,0.2421,0.2421,0.2463,0.2465,0.2467,0.2467,0,0.129,0.1308,0.1378,0.1432,0.1511,0.1535,0.1606,0.168,0.1765,0.1982,0.2001,0.2165,0.2315,0.2324,0.2369,0.2375,0.2332,0.2247,0.227,0.2288,0.2182,0.2082,0.1997,0,0,0,0,0,0.1232,0.1238,0.1284,0.1327,0.14,0.1445,0.1558,0.1632,0.1793,0.1793,0.1893,0.1973,0.2045,0.2134,0.2098,0.227,0.2338,0.2216,0.2251,0.2382,0.2399,0.2294,0,0,0,0,0,0,0.1194,0.1228,0.1243,0.1224,0.124,0.13,0.1366,0.1475,0.1485,0.1661,0.1715,0.1852,0.1956,0.2049,0.2061,0.2087,0.2066,0.2324,0.2318,0.2372,0.2388,0.2401,0.23,0,0,0,0,0]},{"header":{"parameterUnit":"m.s-1","parameterCategory":2,"la1":30.2991,"la2":30.254,"lo1":-89.0895,"lo2":-89.0444,"dy":0.0017,"dx":0.0017,"nx":28,"ny":28,"refTime":"2025-12-14T09:00:00:Z","depth":"4","parameterNumber":3,"parameterNumberName":"V-component_of_CURRENTS"},"data":[0,0,0,0,0,0,0,0,0,0,0,0,0,0,0,0,0,0,0,0,0,0,0,0,0,0,0,0,0,0,0,0,0,0,0,0,0,0,0,0,0,0,0,0,0,0,0,0,0,0,0,0,0,0,0,0,0,0,0.0221,0.0221,0,0.0192,0.0192,0.0191,0.0173,0.0173,0.0173,0.0173,0.0114,0.0112,0.0111,0,0,0,0,0,0,0,0,0,0,0,0,0,0.0221,0.0222,0.0221,0.0221,0.0221,0.0192,0.0192,0.0191,0.0173,0.0173,0.0173,0.0173,0.0114,0.0113,0.0111,0,0,0,0,0,0,0,0,0,0,0,0,0,0.0209,0.0222,0.0221,0.0209,0.0208,0.0192,0.0192,0.0191,0.0173,0.0173,0.0173,0.0173,0.0115,0.0113,0.011,0.0097,0,0,0.0103,0.0102,0,0,0,0,0,0,0,0,0.021,0.0209,0.0211,0.021,0.0208,0.0187,0.017,0.0158,0.0173,0.0185,0.0173,0.0173,0.0136,0.0132,0.0126,0.0094,0.0091,0.0103,0.0102,0.0101,0.01,0,0,0,0,0,0,0,0.0211,0.021,0.0209,0.0211,0.0209,0.0191,0.0189,0.0168,0.016,0.0184,0.0183,0.0181,0.0135,0.0128,0.0124,0.009,0.0103,0.0101,0.01,0.0099,0.0043,0.0043,0,0,0,0,0,0,0.0218,0.0211,0.021,0.0208,0.021,0.0191,0.0189,0.0193,0.0161,0.0156,0.0181,0.018,0.0132,0.0127,0.0122,0.0117,0.0101,0.0099,0.0097,0.0043,0.0043,0.0043,0,0,0,0,0,0,0.0219,0.0219,0.0211,0.0209,0.0207,0.0192,0.0195,0.0192,0.0189,0.0159,0.0154,0.0182,0.0132,0.0125,0.0108,0.0114,0.0097,0.0095,0.0043,0.0043,0.0043,0.0098,0,0,0,0,0,0,0.0219,0.0219,0.0225,0.021,0.0207,0.0209,0.0195,0.0192,0.0189,0.0187,0.0158,0.0152,0.0131,0.0112,0.0106,0.011,0.0094,0.0044,0.0043,0.0043,0.0096,0.01,0.0103,0,0,0,0,0,0.0219,0.023,0.0226,0.0226,0.0216,0.0209,0.0207,0.0194,0.0189,0.0191,0.017,0.0153,0.0106,0.011,0.0103,0.0107,0.0044,0.0043,0.0043,0.0095,0.0099,0.0102,0,0,0,0,0,0,0.0232,0.0228,0.0224,0.0233,0.0225,0.0207,0.0208,0.0199,0.0184,0.0184,0.0154,0.0147,0.0133,0.011,0.0115,0.0089,0.0071,0.007,0.0113,0.0116,0.0119,0.0133,0.0092,0,0,0,0,0,0.0239,0.0246,0.0236,0.0243,0.0241,0.0225,0.0222,0.0214,0.0199,0.0193,0.0173,0.0148,0.0126,0.0115,0.0092,0.0079,0.0049,0.0075,0.0078,0.0081,0.0087,0.0044,0.0044,0.0043,0.0043,0.0043,0,0,0.0245,0.0244,0.0248,0.0246,0.0239,0.0245,0.0223,0.0223,0.0226,0.0188,0.0187,0.016,0.0125,0.0112,0.0103,0.0095,0.0066,0.0081,0.0084,0.0088,0.0044,0.0044,0.0044,0.0042,0.0042,0.0042,0,0,0.0263,0.0262,0.0275,0.0274,0.0269,0.0261,0.0263,0.025,0.0244,0.0236,0.0209,0.0187,0.0156,0.0133,0.0116,0.0122,0.0084,0.0113,0.0141,0.01,0.01,0.01,0.0064,0.006,0.0114,0.0114,0.0115,0,0.0271,0.0288,0.0277,0.0289,0.0295,0.0272,0.0288,0.0277,0.026,0.0256,0.0243,0.0195,0.0166,0.0147,0.0149,0.013,0.0102,0.0133,0.0105,0.0104,0.0103,0.0066,0.0061,0.0117,0.0117,0.0116,0.0116,0,0.0299,0.0314,0.0322,0.0333,0.0335,0.0345,0.0333,0.0331,0.0318,0.0304,0.0284,0.0241,0.0214,0.0197,0.0175,0.0153,0.0135,0.0116,0.01,0.0106,0.0067,0.0061,0.0121,0.012,0.0119,0.0118,0,0,0.0313,0.0338,0.0341,0.036,0.0362,0.0369,0.0375,0.0374,0.0383,0.035,0.035,0.0303,0.0278,0.0257,0.0221,0.0183,0.0148,0.0151,0.0148,0.0123,0.0059,0.0048,0.004,0.0124,0.0123,0.0123,0.0037,0,0.0339,0.0379,0.0382,0.0419,0.0439,0.0429,0.0439,0.0433,0.042,0.0413,0.0359,0.0345,0.0301,0.0291,0.0246,0.0175,0.0133,0.0173,0.005,0.0046,0.0041,0.0033,0.012,0.0032,0.003,0.0029,0.0028,0,0.0365,0.0391,0.0436,0.0471,0.0479,0.0496,0.0514,0.0522,0.0501,0.049,0.046,0.0417,0.0364,0.0324,0.0203,0.0231,0.0153,0.0091,0.0085,0.0053,0.0023,0.002,0.0016,0.0017,0.0018,0.0019,0.002,0,0.0385,0.0429,0.047,0.0482,0.0514,0.0532,0.0548,0.0546,0.0566,0.0543,0.0547,0.0471,0.0439,0.033,0.0204,0.0203,0.0065,0.0044,-0.0042,-0.0044,-0.0031,-0.003,-0.0045,-0.0045,-0.0045,-0.0045,-0.0045,0,0.041,0.0443,0.0486,0.0509,0.056,0.057,0.0619,0.0619,0.0632,0.0657,0.0593,0.0583,0.0439,0.0343,0.022,0.0073,0.0074,-0.0038,-0.0068,-0.0007,-0.0002,-0.0036,-0.0034,-0.0048,-0.0047,-0.0047,-0.0046,0,0.0421,0.045,0.0501,0.055,0.0572,0.0609,0.0677,0.0711,0.0716,0.0744,0.0741,0.0665,0.054,0.0387,0.0207,0.0103,-0.0042,-0.0097,-0.0013,-0.0037,-0.0129,-0.0123,-0.0201,-0.0203,-0.0203,-0.0204,-0.0205,0,0.0428,0.0457,0.0532,0.0573,0.06,0.0664,0.0712,0.0749,0.0789,0.0791,0.0802,0.0701,0.0626,0.0373,0.0204,-0.0032,-0.0069,-0.0146,-0.0146,-0.0125,-0.0146,-0.0138,-0.0131,-0.0206,-0.0207,-0.0207,-0.0207,0,0.0438,0.0468,0.0513,0.0599,0.0662,0.0739,0.0808,0.0845,0.0882,0.0888,0.0851,0.072,0.0577,0.0376,0.0194,0.0023,-0.0097,-0.0157,-0.0156,-0.0157,-0.0132,-0.015,-0.0142,-0.0211,-0.021,-0.021,-0.021,0,0.0445,0.0479,0.0544,0.0621,0.0704,0.0785,0.0825,0.0871,0.0911,0.0911,0.0893,0.0741,0.0655,0.0403,0.0235,0.0067,0.0017,-0.0043,-0.0049,-0.0048,0.0019,0.0074,0.0033,0,0,0,0,0,0.045,0.0495,0.0562,0.0652,0.0735,0.0792,0.0876,0.0911,0.0947,0.0929,0.0917,0.0783,0.0534,0.0429,0.0258,0.02,-0.0021,-0.0008,-0.0096,-0.0229,-0.0225,-0.0175,0,0,0,0,0,0,0.0455,0.0518,0.0559,0.0663,0.0731,0.0831,0.0891,0.0918,0.0912,0.0916,0.0791,0.0733,0.0494,0.0634,0.0254,0.0203,0.012,-0.0119,-0.0123,-0.0231,-0.0228,-0.0225,-0.0172,0,0,0,0,0]}]]